Wind_Speed
20 43 50 48 50 44 38 22 34 28 30 39 28 27 26 27 21 18 18 20 23 25 23 24 24 23 22 18 17 16 15 14 13 16 20 24 24 24 25 23 17 22 25
18 27 45 53 52 50 47 32 38 35 32 34 34 31 30 30 26 19 13 12 16 19 23 25 24 22 23 25 26 25 20 20 18 20 17 20 24 24 21 21 20 27 30
27 25 26 42 56 54 50 39 37 49 42 39 36 35 34 30 28 23 26 25 19 19 20 24 28 31 32 34 29 28 28 22 23 22 17 22 21 24 25 27 30 30 29
36 31 28 31 44 60 60 63 51 49 49 36 38 38 40 43 39 34 31 31 31 26 25 27 28 29 29 31 32 34 34 32 28 27 21 19 22 21 24 26 28 29 31
37 38 34 34 35 43 53 61 60 62 50 48 46 42 42 46 44 43 41 39 40 40 36 31 27 28 29 28 28 28 31 31 28 29 28 25 23 24 27 31 34 32 32
38 41 42 39 41 42 42 47 55 53 60 57 48 50 46 45 45 48 38 36 43 41 40 36 33 32 30 30 30 31 30 30 34 29 31 27 21 29 31 29 38 35 34
38 42 45 46 47 53 56 41 51 52 53 60 56 50 51 50 51 50 53 50 44 44 41 39 35 36 33 35 32 32 30 33 34 33 29 27 22 21 36 35 36 35 31
36 43 45 50 51 50 58 61 52 47 50 52 53 58 54 52 57 59 58 57 54 50 48 44 42 42 42 38 37 35 32 34 36 34 31 28 28 27 30 32 27 22 21
31 36 45 49 53 56 55 61 63 63 58 53 58 58 57 57 59 63 65 64 62 58 56 56 50 48 48 45 42 36 31 33 39 39 32 28 29 30 31 31 29 20 20
34 35 38 44 53 57 61 63 64 63 66 70 70 69 69 68 66 69 70 71 71 66 62 63 61 58 54 50 47 43 36 34 38 37 36 31 28 28 31 30 32 26 22
35 37 38 40 44 52 61 65 71 73 72 72 76 78 74 74 75 77 78 76 75 75 71 73 69 65 62 53 50 50 46 40 36 37 41 36 31 30 33 32 33 35 27
36 38 38 39 41 45 50 57 64 72 79 78 80 80 80 80 76 76 76 73 72 75 75 73 68 62 64 59 52 54 54 51 47 44 40 40 35 35 38 37 37 35 36
38 39 38 40 42 46 48 51 54 59 66 72 78 81 81 84 86 86 80 81 78 74 71 71 71 69 64 62 58 59 59 56 54 52 47 41 43 39 41 45 38 39 38
40 40 40 39 40 43 45 47 51 55 58 63 67 71 76 82 85 88 86 88 86 80 81 79 75 73 75 70 66 65 64 62 58 52 54 50 47 43 42 46 44 41 44
38 39 40 41 42 45 47 48 49 51 53 55 57 62 69 73 78 82 87 89 91 92 89 88 89 81 76 77 72 70 68 66 66 60 53 54 53 52 50 45 45 43 42
38 39 43 45 47 49 49 51 53 54 54 55 57 57 57 59 65 73 77 83 86 90 94 96 91 91 84 83 79 76 76 71 70 66 63 56 48 60 59 53 51 48 47
41 45 49 52 53 56 57 57 56 59 57 57 59 60 59 58 59 62 67 72 77 85 90 94 97 97 95 91 87 83 81 79 76 74 71 68 66 63 61 56 57 55 53
48 51 56 58 59 61 61 59 59 58 59 62 61 62 64 63 63 65 67 70 71 75 81 87 91 96 98 96 94 91 85 82 82 78 77 75 72 68 64 61 61 59 58
55 58 60 59 60 60 60 60 62 63 63 63 66 67 64 64 64 65 65 65 66 65 66 71 78 85 95 96 97 98 93 88 86 85 81 79 77 71 67 69 66 65 62
62 63 62 62 61 63 63 63 64 67 69 67 67 69 69 65 65 64 64 63 62 62 60 58 62 73 80 88 94 96 97 95 89 91 86 79 78 78 75 69 69 70 66
64 64 65 66 67 66 67 71 72 71 69 69 71 69 65 62 60 58 57 57 55 56 53 52 52 57 67 71 79 87 92 97 98 90 89 87 83 80 76 72 70 70 67
66 67 69 69 70 73 76 76 74 72 70 69 63 60 56 53 51 51 50 51 51 51 48 46 46 51 58 61 63 68 78 91 97 97 89 86 82 78 66 61 70 71 70
69 68 70 74 77 78 74 70 69 67 60 55 53 50 46 44 43 42 43 44 44 45 45 43 44 46 51 55 54 58 66 77 88 90 93 89 82 77 76 71 72 74 75
73 76 78 77 72 69 66 61 53 49 47 44 40 39 39 40 41 40 40 39 35 32 38 38 37 41 43 47 49 54 62 68 74 81 88 92 84 78 73 71 74 70 73
79 76 72 70 66 56 48 43 40 36 34 33 35 37 36 34 32 31 31 31 24 26 24 26 28 32 36 40 44 57 57 59 68 71 80 86 85 82 76 79 72 73 78
71 70 64 53 44 39 35 32 29 30 31 33 34 34 31 27 21 20 18 16 13 14 19 21 22 23 28 35 42 48 57 54 62 65 72 78 81 82 81 80 81 72 75
Wind_Direction
232 225 221 220 218 223 233 239 216 216 237 244 245 244 257 260 274 271 250 244 243 247 249 251 255 265 256 259 256 272 269 253 270 276 278 274 285 305 289 300 309 319 322
239 230 229 223 223 227 233 228 238 222 228 241 244 247 258 251 257 256 245 261 253 252 259 256 255 257 253 264 264 264 270 263 260 270 276 283 281 286 293 294 284 303 314
251 237 233 229 226 228 224 218 237 231 236 240 243 249 250 243 245 249 255 263 267 263 274 272 269 271 268 271 267 266 267 269 266 262 279 283 292 296 291 290 295 301 306
252 246 234 234 229 228 228 231 230 227 227 235 243 250 250 251 250 248 255 257 261 266 271 282 275 266 272 275 280 269 268 263 270 261 257 258 273 290 301 294 292 297 302
243 239 239 237 224 225 231 234 239 241 234 238 241 250 254 248 249 250 253 261 258 257 260 268 275 277 277 279 278 279 267 262 267 254 256 266 285 292 289 290 291 292 294
244 237 235 235 226 220 228 234 240 243 243 242 241 240 245 247 251 248 249 259 260 252 253 253 253 259 273 281 275 276 269 265 256 262 253 271 284 300 284 285 286 289 290
249 242 236 235 231 227 230 227 235 238 239 243 242 245 246 250 251 249 248 251 257 251 247 249 248 251 259 268 272 266 267 266 264 258 259 260 264 279 270 288 286 285 288
256 249 243 238 238 236 232 238 236 234 236 238 241 245 245 247 248 245 245 244 249 246 250 251 256 256 254 255 264 258 261 264 260 257 263 252 255 257 275 286 283 282 292
263 256 249 247 242 241 242 240 241 245 238 231 231 234 235 236 238 238 237 244 245 248 249 255 259 259 250 253 252 254 258 258 255 256 252 254 260 260 269 276 273 269 285
271 260 255 248 245 245 242 242 244 246 246 246 245 243 242 240 243 242 241 243 247 248 250 255 257 259 248 248 248 248 247 245 243 243 238 245 251 259 268 276 264 259 280
272 270 262 257 251 248 246 247 247 247 249 248 247 249 251 252 253 252 248 248 250 252 255 259 261 256 246 247 244 244 242 246 241 250 241 241 255 255 261 264 274 274 284
274 266 262 262 259 256 253 251 250 249 248 249 249 250 251 250 250 250 251 250 250 251 253 253 252 249 248 247 242 242 240 242 247 250 244 239 249 260 262 258 260 259 270
277 270 268 268 266 263 261 258 256 254 253 252 252 250 251 252 251 249 251 250 249 248 248 246 246 246 245 240 237 240 240 238 241 247 245 239 245 257 254 259 255 262 260
275 268 269 270 274 276 275 274 271 266 262 258 256 255 254 253 253 252 253 254 251 250 249 247 245 243 243 239 233 235 239 240 239 242 242 242 248 250 254 253 257 260 264
271 270 270 272 272 275 276 277 279 277 271 266 263 259 255 255 255 255 252 253 253 252 250 249 248 245 242 240 237 234 235 237 239 237 240 241 246 254 255 257 260 259 264
274 274 275 277 279 279 280 281 282 280 280 274 270 266 264 262 260 257 256 254 254 252 250 249 246 245 244 244 241 239 237 237 236 236 236 237 245 252 254 256 259 263 262
279 281 282 283 283 283 283 284 283 283 279 278 276 276 271 267 264 265 263 260 257 254 251 250 247 244 244 243 241 240 239 237 237 237 238 237 239 246 250 251 259 262 265
286 286 286 285 285 285 285 284 283 281 280 281 277 277 274 271 268 268 268 269 267 259 254 251 248 247 244 240 240 240 239 239 235 236 237 240 241 243 246 250 254 259 262
292 291 288 288 287 287 287 287 286 286 286 283 281 281 278 275 273 270 269 266 266 264 259 252 249 246 244 242 238 237 237 237 237 237 237 239 241 244 247 250 250 254 258
294 293 291 292 290 290 288 287 288 287 285 283 283 281 280 277 274 272 267 267 266 263 262 256 249 245 243 241 240 237 235 235 236 237 237 238 241 243 248 252 251 252 256
294 292 292 292 292 290 289 290 289 289 286 284 286 284 280 278 275 270 268 267 262 262 262 256 247 244 242 240 238 237 235 233 234 235 236 239 242 245 249 253 256 253 254
293 292 291 291 292 292 292 290 289 289 287 287 285 283 280 277 272 267 265 263 262 260 255 251 248 242 241 237 235 234 234 233 233 233 234 236 238 242 247 246 253 254 254
292 292 292 292 292 291 290 289 289 288 286 284 284 283 281 278 274 267 261 255 255 255 255 250 248 243 239 237 230 231 230 231 231 232 232 234 235 239 241 244 246 251 252
294 294 295 294 294 293 292 289 286 284 283 282 281 281 282 281 276 269 260 252 250 253 255 251 246 244 238 235 231 225 230 228 229 228 231 232 232 234 235 239 240 240 247
297 297 296 296 295 293 289 287 284 283 280 280 283 284 284 281 277 268 257 247 242 245 258 248 245 246 240 236 232 226 224 228 228 228 230 231 232 232 234 233 243 244 243
297 297 297 294 291 289 289 286 283 280 281 283 284 284 281 281 274 263 243 220 216 236 241 254 256 259 243 236 232 226 224 223 230 228 229 230 230 231 232 235 237 242 247
Height
10915 10918 10922 10927 10931 10934 10934 10940 10949 10953 10958 10958 10960 10960 10962 10963 10962 10962 10960 10962 10963 10964 10965 10966 10970 10972 10972 10972 10973 10973 10974 10973 10972 10972 10974 10972 10970 10967 10966 10967 10967 10966 10964
10909 10912 10915 10920 10922 10925 10928 10934 10937 10940 10946 10946 10949 10954 10955 10955 10956 10960 10957 10958 10960 10963 10963 10963 10965 10965 10967 10967 10969 10968 10969 10969 10969 10968 10969 10968 10966 10965 10966 10965 10965 10963 10961
10903 10906 10908 10910 10913 10916 10920 10922 10926 10932 10935 10937 10941 10945 10947 10948 10950 10951 10954 10954 10956 10957 10958 10959 10961 10960 10960 10961 10963 10964 10964 10964 10962 10963 10963 10964 10963 10962 10962 10961 10960 10958 10956
10896 10899 10902 10903 10905 10907 10909 10912 10917 10919 10924 10928 10933 10935 10938 10940 10942 10944 10946 10948 10949 10950 10951 10952 10953 10954 10955 10956 10956 10957 10958 10959 10958 10958 10956 10957 10960 10959 10959 10957 10954 10953 10951
10885 10888 10891 10894 10896 10899 10901 10902 10907 10909 10913 10918 10923 10926 10927 10929 10931 10934 10935 10937 10939 10942 10944 10945 10946 10946 10947 10949 10948 10949 10949 10952 10953 10952 10951 10953 10955 10954 10952 10951 10950 10948 10945
10874 10877 10880 10883 10886 10889 10891 10892 10894 10897 10901 10906 10910 10913 10914 10917 10920 10922 10924 10925 10928 10930 10933 10935 10937 10938 10939 10940 10940 10941 10941 10942 10943 10944 10946 10949 10950 10942 10933 10936 10943 10942 10939
10864 10866 10869 10873 10876 10878 10880 10882 10883 10886 10889 10894 10897 10900 10902 10905 10907 10910 10913 10914 10917 10918 10921 10923 10926 10927 10929 10931 10933 10934 10933 10934 10934 10936 10939 10942 10944 10944 10935 10934 10937 10935 10932
10854 10855 10857 10860 10863 10865 10867 10869 10872 10874 10876 10880 10884 10886 10888 10890 10893 10896 10897 10901 10904 10906 10908 10910 10913 10917 10920 10923 10925 10925 10925 10924 10925 10927 10930 10932 10936 10938 10937 10934 10932 10928 10927
10845 10844 10846 10847 10850 10852 10855 10856 10858 10859 10863 10866 10869 10871 10872 10874 10877 10880 10882 10884 10887 10892 10893 10895 10899 10904 10908 10914 10914 10915 10916 10917 10918 10919 10921 10923 10924 10927 10927 10926 10924 10921 10919
10833 10833 10833 10835 10836 10838 10840 10842 10843 10844 10846 10849 10852 10854 10855 10857 10860 10863 10865 10869 10870 10876 10878 10882 10887 10890 10894 10899 10902 10906 10905 10906 10908 10909 10910 10912 10914 10916 10917 10916 10915 10913 10912
10822 10821 10821 10822 10822 10823 10825 10826 10827 10828 10829 10832 10835 10836 10836 10838 10841 10841 10847 10852 10853 10858 10860 10865 10871 10873 10878 10884 10889 10891 10893 10896 10899 10899 10902 10902 10903 10905 10906 10907 10907 10907 10906
10810 10809 10809 10809 10809 10809 10808 10809 10809 10809 10810 10813 10815 10815 10817 10819 10821 10822 10825 10831 10833 10836 10842 10848 10853 10855 10863 10868 10872 10876 10880 10885 10888 10889 10890 10892 10893 10894 10895 10896 10898 10897 10898
10796 10795 10796 10795 10793 10792 10792 10792 10791 10791 10791 10791 10794 10795 10796 10797 10799 10803 10804 10807 10812 10817 10823 10827 10834 10838 10843 10850 10856 10859 10864 10869 10875 10877 10878 10880 10880 10883 10885 10885 10888 10889 10891
10781 10781 10781 10781 10779 10777 10775 10774 10772 10771 10772 10772 10772 10773 10774 10775 10775 10781 10781 10781 10787 10796 10799 10804 10810 10818 10824 10831 10838 10842 10847 10853 10858 10862 10864 10867 10868 10871 10873 10874 10877 10880 10880
10766 10767 10768 10767 10766 10764 10762 10759 10756 10752 10752 10751 10749 10751 10752 10752 10750 10753 10757 10756 10759 10769 10774 10780 10785 10795 10803 10809 10817 10823 10829 10834 10839 10846 10850 10852 10854 10856 10860 10862 10864 10866 10869
10753 10753 10752 10752 10750 10748 10746 10743 10740 10737 10733 10731 10730 10730 10728 10729 10728 10728 10728 10731 10733 10738 10744 10750 10759 10768 10779 10786 10794 10802 10808 10814 10821 10829 10833 10836 10842 10842 10845 10848 10850 10851 10855
10740 10738 10736 10734 10732 10729 10727 10725 10723 10716 10715 10711 10708 10707 10707 10707 10706 10704 10703 10703 10705 10708 10714 10718 10728 10737 10749 10759 10767 10777 10786 10794 10802 10809 10814 10819 10823 10827 10830 10832 10835 10837 10839
10726 10723 10719 10715 10712 10708 10706 10703 10700 10698 10694 10688 10687 10685 10682 10682 10681 10681 10679 10677 10676 10680 10684 10689 10696 10703 10715 10729 10740 10750 10761 10770 10778 10785 10793 10799 10804 10808 10813 10817 10821 10823 10825
10707 10703 10698 10695 10692 10688 10684 10681 10677 10674 10671 10668 10661 10658 10656 10656 10655 10654 10653 10652 10651 10653 10655 10661 10665 10671 10681 10695 10708 10722 10734 10745 10755 10762 10769 10777 10786 10792 10796 10800 10805 10808 10809
10686 10680 10676 10673 10669 10665 10662 10658 10654 10650 10646 10641 10638 10634 10628 10630 10628 10626 10626 10627 10628 10628 10631 10636 10639 10643 10652 10665 10678 10692 10706 10719 10729 10738 10747 10757 10765 10772 10777 10781 10788 10790 10792
10665 10660 10655 10650 10645 10641 10637 10632 10627 10625 10621 10616 10611 10606 10604 10603 10601 10600 10601 10602 10604 10606 10609 10613 10617 10621 10629 10641 10651 10664 10678 10692 10704 10716 10728 10737 10745 10752 10758 10763 10768 10771 10775
10646 10641 10635 10629 10622 10616 10611 10606 10600 10596 10593 10589 10585 10581 10579 10578 10578 10578 10579 10580 10581 10583 10588 10593 10598 10604 10610 10620 10630 10641 10651 10664 10677 10692 10708 10718 10728 10734 10741 10746 10747 10751 10755
10625 10619 10613 10606 10599 10593 10586 10581 10577 10573 10569 10566 10563 10560 10558 10558 10558 10558 10559 10560 10563 10566 10571 10578 10583 10589 10595 10602 10614 10623 10631 10639 10654 10673 10685 10697 10710 10717 10722 10727 10729 10728 10732
10601 10595 10588 10580 10573 10567 10562 10558 10554 10552 10550 10548 10547 10545 10544 10542 10540 10539 10541 10545 10549 10553 10557 10564 10571 10576 10582 10590 10601 10607 10614 10624 10635 10651 10661 10675 10689 10697 10705 10705 10706 10711 10713
10576 10568 10561 10556 10550 10545 10541 10539 10537 10536 10535 10534 10533 10531 10530 10528 10526 10526 10528 10533 10538 10542 10549 10553 10559 10565 10571 10579 10587 10594 10602 10610 10618 10632 10640 10652 10666 10677 10685 10690 10688 10694 10697
10553 10546 10540 10535 10531 10529 10527 10526 10525 10524 10524 10523 10522 10520 10518 10517 10516 10517 10520 10525 10529 10536 10541 10545 10550 10555 10561 10567 10573 10581 10591 10596 10606 10614 10622 10634 10646 10658 10665 10671 10675 10678 10679